| time (UTC) | temp F | wind direction | speed MPH | gust MPH | rain 1hr in | rain 24hr in | rain mn in | humidity % | barometer mb |
| 20260510070901 | 44 | 147 | 3.0 | 6.0 | 0.00 | 0.06 | 0.00 | 79 | 1021.9 |
| 20260510070401 | 44 | 325 | 3.0 | 6.0 | 0.00 | 0.06 | 0.00 | 80 | 1021.8 |
| 20260510065901 | 43 | 175 | 1.0 | 3.0 | 0.00 | 0.06 | 0.00 | 81 | 1021.8 |
| 20260510065401 | 43 | 89 | 2.0 | 9.0 | 0.00 | 0.06 | 0.00 | 81 | 1021.8 |
| 20260510064401 | 43 | 16 | 3.0 | 6.0 | 0.00 | 0.06 | 0.00 | 81 | 1021.7 |
| 20260510063901 | 43 | 190 | 2.0 | 7.0 | 0.00 | 0.06 | 0.00 | 82 | 1021.7 |
| 20260510063400 | 43 | 56 | 2.0 | 7.0 | 0.00 | 0.06 | 0.00 | 82 | 1021.7 |
| 20260510062902 | 42 | 55 | 4.0 | 8.0 | 0.00 | 0.06 | 0.00 | 83 | 1021.6 |
| 20260510061901 | 42 | 347 | 2.0 | 7.0 | 0.00 | 0.06 | 0.00 | 84 | 1021.5 |
| 20260510061401 | 42 | 4 | 3.0 | 7.0 | 0.00 | 0.06 | 0.00 | 84 | 1021.5 |
| 20260510060901 | 41 | 43 | 1.0 | 7.0 | 0.00 | 0.07 | 0.00 | 85 | 1021.4 |
| 20260510060400 | 41 | 18 | 2.0 | 7.0 | 0.00 | 0.07 | 0.00 | 86 | 1021.4 |
| 20260510055901 | 40 | 80 | 2.0 | 6.0 | 0.00 | 0.07 | 0.00 | 88 | 1021.5 |
| 20260510055400 | 40 | 335 | 2.0 | 7.0 | 0.00 | 0.07 | 0.00 | 89 | 1021.6 |
| 20260510054901 | 39 | 86 | 1.0 | 3.0 | 0.00 | 0.07 | 0.00 | 89 | 1021.6 |
| 20260510054401 | 39 | 71 | 1.0 | 3.0 | 0.00 | 0.07 | 0.00 | 89 | 1021.6 |
| 20260510053901 | 39 | 105 | 1.0 | 5.0 | 0.00 | 0.07 | 0.00 | 89 | 1021.7 |
| 20260510052900 | 39 | 236 | 1.0 | 3.0 | 0.00 | 0.07 | 0.00 | 89 | 1021.7 |
| 20260510052400 | 39 | 243 | 1.0 | 5.0 | 0.00 | 0.07 | 0.00 | 89 | 1021.7 |
| 20260510051400 | 39 | 249 | 3.0 | 5.0 | 0.00 | 0.07 | 0.00 | 89 | 1021.7 |
| 20260510050901 | 39 | 270 | 0.0 | 3.0 | 0.00 | 0.07 | 0.00 | 89 | 1021.8 |
| 20260510050402 | 38 | 270 | 1.0 | 2.0 | 0.00 | 0.07 | 0.00 | 89 | 1021.8 |
| 20260510045901 | 38 | 270 | 1.0 | 3.0 | 0.00 | 0.07 | 0.00 | 89 | 1021.9 |
| 20260510045401 | 39 | 270 | 0.0 | 2.0 | 0.00 | 0.07 | 0.00 | 89 | 1021.8 |
| 20260510044902 | 38 | 270 | 1.0 | 3.0 | 0.00 | 0.07 | 0.00 | 88 | 1021.9 |
| 20260510044401 | 39 | 298 | 0.0 | 1.0 | 0.00 | 0.07 | 0.00 | 88 | 1021.9 |
| 20260510043901 | 39 | 342 | 1.0 | 2.0 | 0.00 | 0.07 | 0.00 | 87 | 1021.9 |
| 20260510043401 | 39 | 342 | 0.0 | 2.0 | 0.00 | 0.07 | 0.00 | 87 | 1022.0 |
| 20260510042900 | 39 | 342 | 1.0 | 2.0 | 0.00 | 0.07 | 0.00 | 87 | 1022.0 |
| 20260510042400 | 39 | 347 | 1.0 | 3.0 | 0.00 | 0.07 | 0.00 | 87 | 1022.2 |
| 20260510041901 | 40 | 261 | 1.0 | 3.0 | 0.00 | 0.07 | 0.00 | 88 | 1022.2 |
| 20260510040901 | 40 | 285 | 2.0 | 5.0 | 0.00 | 0.07 | 0.00 | 88 | 1022.2 |
| 20260510040401 | 40 | 175 | 2.0 | 6.0 | 0.00 | 0.07 | 0.00 | 87 | 1022.2 |
| 20260510035901 | 40 | 249 | 0.0 | 3.0 | 0.00 | 0.07 | 0.00 | 87 | 1022.2 |
| 20260510035400 | 40 | 230 | 2.0 | 6.0 | 0.00 | 0.07 | 0.00 | 87 | 1022.2 |
| 20260510034901 | 40 | 150 | 1.0 | 3.0 | 0.00 | 0.07 | 0.00 | 87 | 1022.2 |
| 20260510034401 | 40 | 122 | 1.0 | 5.0 | 0.00 | 0.07 | 0.00 | 87 | 1022.2 |
| 20260510033400 | 40 | 317 | 2.0 | 3.0 | 0.00 | 0.07 | 0.00 | 87 | 1022.3 |
| 20260510032900 | 41 | 263 | 1.0 | 3.0 | 0.00 | 0.07 | 0.00 | 86 | 1022.3 |
| 20260510032401 | 41 | 201 | 1.0 | 3.0 | 0.00 | 0.07 | 0.00 | 86 | 1022.3 |
| 20260510031901 | 41 | 133 | 1.0 | 3.0 | 0.00 | 0.07 | 0.00 | 86 | 1022.4 |
| 20260510030400 | 41 | 32 | 2.0 | 7.0 | 0.00 | 0.07 | 0.00 | 86 | 1022.2 |
| 20260510025901 | 41 | 94 | 2.0 | 7.0 | 0.00 | 0.07 | 0.00 | 86 | 1022.1 |
| 20260510025401 | 41 | 145 | 2.0 | 8.0 | 0.00 | 0.07 | 0.00 | 86 | 1022.0 |
| 20260510023901 | 41 | 320 | 3.0 | 12.0 | 0.00 | 0.07 | 0.00 | 87 | 1021.7 |
| 20260510023401 | 42 | 21 | 3.0 | 12.0 | 0.00 | 0.07 | 0.00 | 87 | 1021.6 |
| 20260510022400 | 42 | 350 | 5.0 | 14.0 | 0.00 | 0.07 | 0.00 | 86 | 1021.6 |
| 20260510021901 | 42 | 3 | 3.0 | 13.0 | 0.00 | 0.07 | 0.00 | 87 | 1021.5 |
| 20260510021400 | 42 | 15 | 5.0 | 10.0 | 0.00 | 0.07 | 0.00 | 87 | 1021.5 |
| 20260510015901 | 42 | 357 | 3.0 | 10.0 | 0.00 | 0.07 | 0.00 | 87 | 1021.6 |
| 20260510015400 | 42 | 17 | 4.0 | 12.0 | 0.00 | 0.07 | 0.00 | 87 | 1021.6 |
| 20260510014901 | 42 | 158 | 4.0 | 9.0 | 0.00 | 0.07 | 0.00 | 87 | 1021.6 |
| 20260510014400 | 42 | 48 | 3.0 | 13.0 | 0.00 | 0.07 | 0.00 | 87 | 1021.6 |
| 20260510013901 | 42 | 15 | 5.0 | 12.0 | 0.00 | 0.07 | 0.00 | 87 | 1021.5 |
| 20260510012401 | 42 | 39 | 5.0 | 10.0 | 0.00 | 0.07 | 0.00 | 88 | 1021.5 |
| 20260510011401 | 42 | 22 | 6.0 | 13.0 | 0.00 | 0.07 | 0.00 | 88 | 1021.4 |
| 20260510010901 | 42 | 0 | 6.0 | 16.0 | 0.00 | 0.07 | 0.00 | 88 | 1021.5 |
| 20260510010400 | 42 | 342 | 5.0 | 10.0 | 0.00 | 0.07 | 0.00 | 88 | 1021.5 |
| 20260510005900 | 42 | 28 | 6.0 | 12.0 | 0.00 | 0.07 | 0.00 | 88 | 1021.5 |
| 20260510005400 | 43 | 1 | 6.0 | 26.0 | 0.00 | 0.07 | 0.00 | 87 | 1021.5 |
| 20260510004401 | 43 | 355 | 5.0 | 12.0 | 0.00 | 0.07 | 0.00 | 87 | 1021.6 |
| 20260510003401 | 43 | 6 | 6.0 | 14.0 | 0.00 | 0.07 | 0.00 | 87 | 1021.7 |
| 20260510002900 | 43 | 8 | 5.0 | 8.0 | 0.00 | 0.07 | 0.00 | 86 | 1021.8 |
| 20260510002401 | 43 | 20 | 5.0 | 13.0 | 0.00 | 0.07 | 0.00 | 87 | 1021.9 |
| 20260510001900 | 43 | 20 | 5.0 | 23.0 | 0.00 | 0.07 | 0.00 | 86 | 1021.9 |
| 20260510001400 | 43 | 18 | 6.0 | 13.0 | 0.00 | 0.07 | 0.00 | 86 | 1021.9 |
| 20260510000901 | 43 | 2 | 6.0 | 15.0 | 0.00 | 0.07 | 0.00 | 86 | 1021.8 |
| 20260510000400 | 44 | 23 | 5.0 | 14.0 | 0.00 | 0.07 | 0.00 | 86 | 1021.8 |
| 20260509235901 | 44 | 25 | 6.0 | 12.0 | 0.00 | 0.07 | 0.00 | 86 | 1021.7 |
| 20260509235400 | 44 | 337 | 3.0 | 13.0 | 0.00 | 0.07 | 0.00 | 86 | 1021.7 |
| 20260509234901 | 44 | 3 | 5.0 | 15.0 | 0.00 | 0.07 | 0.00 | 86 | 1021.7 |
| 20260509234400 | 44 | 19 | 6.0 | 13.0 | 0.00 | 0.07 | 0.00 | 86 | 1021.7 |
| 20260509233901 | 44 | 14 | 5.0 | 12.0 | 0.00 | 0.07 | 0.00 | 86 | 1021.7 |
| 20260509233400 | 44 | 8 | 6.0 | 17.0 | 0.00 | 0.07 | 0.00 | 85 | 1021.8 |
| 20260509232900 | 44 | 6 | 6.0 | 17.0 | 0.00 | 0.07 | 0.00 | 85 | 1021.8 |
| 20260509232400 | 44 | 24 | 6.0 | 15.0 | 0.00 | 0.07 | 0.00 | 85 | 1021.8 |
| 20260509231900 | 44 | 1 | 6.0 | 12.0 | 0.00 | 0.07 | 0.00 | 85 | 1021.8 |
| 20260509231400 | 44 | 27 | 6.0 | 13.0 | 0.00 | 0.07 | 0.00 | 85 | 1021.8 |
| 20260509230946 | 44 | 19 | 6.0 | 13.0 | 0.00 | 0.07 | 0.00 | 85 | 1021.7 |
| 20260509230400 | 44 | 355 | 6.0 | 18.0 | 0.00 | 0.07 | 0.00 | 85 | 1021.7 |
| 20260509225901 | 44 | 22 | 6.0 | 15.0 | 0.00 | 0.07 | 0.07 | 85 | 1021.6 |
| 20260509225400 | 44 | 0 | 5.0 | 13.0 | 0.00 | 0.07 | 0.07 | 86 | 1021.7 |
| 20260509224901 | 44 | 16 | 7.0 | 13.0 | 0.00 | 0.07 | 0.07 | 86 | 1021.7 |
| 20260509224400 | 44 | 4 | 7.0 | 14.0 | 0.00 | 0.07 | 0.07 | 86 | 1021.6 |
| 20260509223901 | 44 | 27 | 8.0 | 14.0 | 0.00 | 0.07 | 0.07 | 86 | 1021.6 |
| 20260509223400 | 44 | 0 | 7.0 | 13.0 | 0.00 | 0.07 | 0.07 | 86 | 1021.6 |
| 20260509222400 | 44 | 18 | 8.0 | 14.0 | 0.00 | 0.07 | 0.07 | 87 | 1021.6 |
| 20260509221901 | 44 | 1 | 6.0 | 16.0 | 0.00 | 0.07 | 0.07 | 87 | 1021.6 |
| 20260509221400 | 44 | 15 | 9.0 | 16.0 | 0.00 | 0.07 | 0.07 | 87 | 1021.6 |
| 20260509220401 | 44 | 345 | 5.0 | 12.0 | 0.00 | 0.07 | 0.07 | 86 | 1021.7 |
| 20260509215901 | 44 | 13 | 8.0 | 18.0 | 0.00 | 0.07 | 0.07 | 86 | 1021.8 |
| 20260509214901 | 44 | 10 | 6.0 | 12.0 | 0.00 | 0.07 | 0.07 | 86 | 1021.7 |
| 20260509214400 | 44 | 8 | 6.0 | 14.0 | 0.00 | 0.07 | 0.07 | 86 | 1021.8 |
| 20260509213901 | 44 | 14 | 8.0 | 17.0 | 0.00 | 0.07 | 0.07 | 86 | 1021.9 |
| 20260509213400 | 44 | 10 | 6.0 | 17.0 | 0.00 | 0.07 | 0.07 | 86 | 1021.8 |
| 20260509212401 | 44 | 23 | 6.0 | 12.0 | 0.00 | 0.07 | 0.07 | 86 | 1021.7 |
| 20260509211900 | 44 | 8 | 5.0 | 10.0 | 0.00 | 0.07 | 0.07 | 86 | 1021.7 |
| 20260509211400 | 44 | 0 | 6.0 | 12.0 | 0.00 | 0.07 | 0.07 | 85 | 1021.8 |
| 20260509210900 | 44 | 19 | 6.0 | 13.0 | 0.00 | 0.07 | 0.07 | 86 | 1021.8 |
| 20260509210400 | 44 | 358 | 7.0 | 16.0 | 0.00 | 0.07 | 0.07 | 86 | 1021.7 |
| 20260509205901 | 44 | 358 | 5.0 | 14.0 | 0.00 | 0.07 | 0.07 | 86 | 1021.7 |
| 20260509205400 | 44 | 24 | 6.0 | 16.0 | 0.00 | 0.07 | 0.07 | 85 | 1021.7 |
| 20260509204901 | 44 | 10 | 7.0 | 14.0 | 0.00 | 0.07 | 0.07 | 85 | 1021.7 |
| 20260509204400 | 44 | 7 | 6.0 | 14.0 | 0.00 | 0.07 | 0.07 | 85 | 1021.6 |
| 20260509203901 | 44 | 13 | 6.0 | 12.0 | 0.00 | 0.07 | 0.07 | 86 | 1021.7 |
| 20260509203401 | 44 | 19 | 5.0 | 12.0 | 0.00 | 0.07 | 0.07 | 86 | 1021.7 |
| 20260509202900 | 44 | 5 | 7.0 | 17.0 | 0.00 | 0.07 | 0.07 | 85 | 1021.6 |
| 20260509202400 | 44 | 3 | 8.0 | 15.0 | 0.00 | 0.07 | 0.07 | 86 | 1021.5 |
| 20260509201901 | 44 | 4 | 7.0 | 14.0 | 0.00 | 0.07 | 0.07 | 86 | 1021.4 |
| 20260509201400 | 44 | 6 | 9.0 | 16.0 | 0.00 | 0.07 | 0.07 | 86 | 1021.4 |
| 20260509200400 | 44 | 15 | 7.0 | 18.0 | 0.00 | 0.07 | 0.07 | 85 | 1021.4 |
| 20260509195900 | 44 | 21 | 8.0 | 14.0 | 0.00 | 0.07 | 0.07 | 85 | 1021.3 |
| 20260509195359 | 44 | 11 | 6.0 | 20.0 | 0.00 | 0.07 | 0.07 | 85 | 1021.2 |
| 20260509194401 | 44 | 20 | 7.0 | 20.0 | 0.00 | 0.07 | 0.07 | 85 | 1021.2 |
| 20260509193901 | 44 | 5 | 9.0 | 20.0 | 0.00 | 0.07 | 0.07 | 85 | 1021.1 |
| 20260509193400 | 44 | 4 | 9.0 | 20.0 | 0.00 | 0.07 | 0.07 | 85 | 1021.1 |
| 20260509192900 | 44 | 4 | 7.0 | 16.0 | 0.00 | 0.07 | 0.07 | 85 | 1021.0 |
| 20260509192400 | 44 | 1 | 9.0 | 18.0 | 0.00 | 0.07 | 0.07 | 86 | 1021.0 |
| 20260509191901 | 44 | 350 | 10.0 | 17.0 | 0.00 | 0.07 | 0.07 | 86 | 1020.9 |
| 20260509191400 | 44 | 355 | 8.0 | 20.0 | 0.00 | 0.07 | 0.07 | 86 | 1020.7 |
| 20260509190900 | 44 | 3 | 10.0 | 16.0 | 0.00 | 0.07 | 0.07 | 86 | 1020.8 |
| 20260509190400 | 44 | 25 | 8.0 | 16.0 | 0.00 | 0.07 | 0.07 | 87 | 1020.8 |
| 20260509185900 | 44 | 3 | 9.0 | 13.0 | 0.00 | 0.07 | 0.07 | 87 | 1020.8 |
| 20260509185400 | 44 | 14 | 9.0 | 17.0 | 0.00 | 0.07 | 0.07 | 87 | 1020.8 |
| 20260509184900 | 44 | 7 | 7.0 | 23.0 | 0.00 | 0.07 | 0.07 | 87 | 1020.8 |
| 20260509184400 | 44 | 11 | 7.0 | 18.0 | 0.00 | 0.07 | 0.07 | 87 | 1020.9 |
| 20260509183900 | 44 | 22 | 9.0 | 16.0 | 0.00 | 0.07 | 0.07 | 88 | 1021.0 |
| 20260509183400 | 44 | 25 | 9.0 | 16.0 | 0.00 | 0.07 | 0.07 | 87 | 1021.0 |
| 20260509182900 | 44 | 14 | 9.0 | 15.0 | 0.00 | 0.07 | 0.07 | 87 | 1020.8 |
| 20260509182400 | 44 | 1 | 7.0 | 18.0 | 0.00 | 0.07 | 0.07 | 87 | 1020.9 |
| 20260509181900 | 44 | 16 | 10.0 | 18.0 | 0.00 | 0.07 | 0.07 | 87 | 1020.9 |
| 20260509181400 | 44 | 8 | 8.0 | 17.0 | 0.00 | 0.07 | 0.07 | 87 | 1020.9 |
| 20260509175900 | 45 | 13 | 9.0 | 20.0 | 0.00 | 0.07 | 0.07 | 87 | 1020.9 |
| 20260509175400 | 45 | 359 | 5.0 | 12.0 | 0.00 | 0.07 | 0.07 | 87 | 1020.9 |
| 20260509174901 | 45 | 5 | 6.0 | 15.0 | 0.00 | 0.07 | 0.07 | 87 | 1020.9 |
| 20260509174400 | 45 | 348 | 7.0 | 15.0 | 0.00 | 0.07 | 0.07 | 87 | 1020.8 |
| 20260509173901 | 45 | 23 | 9.0 | 15.0 | 0.00 | 0.07 | 0.07 | 87 | 1020.5 |
| 20260509173400 | 45 | 7 | 7.0 | 12.0 | 0.00 | 0.07 | 0.07 | 88 | 1020.5 |
| 20260509172900 | 45 | 5 | 7.0 | 15.0 | 0.00 | 0.07 | 0.07 | 88 | 1020.3 |
| 20260509172401 | 46 | 7 | 8.0 | 14.0 | 0.00 | 0.07 | 0.07 | 88 | 1020.4 |
| 20260509171900 | 46 | 6 | 8.0 | 14.0 | 0.00 | 0.07 | 0.07 | 87 | 1020.3 |
| 20260509171400 | 46 | 8 | 9.0 | 20.0 | 0.00 | 0.07 | 0.07 | 87 | 1020.4 |
| 20260509170900 | 46 | 4 | 6.0 | 13.0 | 0.00 | 0.07 | 0.07 | 87 | 1020.4 |
| 20260509170400 | 46 | 352 | 7.0 | 15.0 | 0.00 | 0.07 | 0.07 | 88 | 1020.5 |
| 20260509165900 | 46 | 349 | 5.0 | 12.0 | 0.00 | 0.07 | 0.07 | 87 | 1020.5 |
| 20260509165359 | 46 | 10 | 9.0 | 16.0 | 0.00 | 0.07 | 0.07 | 87 | 1020.4 |
| 20260509164900 | 46 | 357 | 7.0 | 15.0 | 0.00 | 0.07 | 0.07 | 87 | 1020.4 |
| 20260509164400 | 46 | 5 | 7.0 | 13.0 | 0.00 | 0.07 | 0.07 | 87 | 1020.3 |
| 20260509163900 | 46 | 0 | 9.0 | 16.0 | 0.00 | 0.07 | 0.07 | 87 | 1020.2 |
| 20260509163400 | 46 | 1 | 6.0 | 16.0 | 0.00 | 0.07 | 0.07 | 87 | 1020.3 |
| 20260509162901 | 46 | 20 | 6.0 | 13.0 | 0.00 | 0.07 | 0.07 | 87 | 1020.1 |
| 20260509161900 | 47 | 16 | 6.0 | 15.0 | 0.00 | 0.07 | 0.07 | 88 | 1020.2 |
| 20260509160900 | 47 | 5 | 9.0 | 14.0 | 0.00 | 0.07 | 0.07 | 87 | 1020.1 |
| 20260509160400 | 47 | 11 | 7.0 | 17.0 | 0.00 | 0.07 | 0.07 | 87 | 1019.8 |
| 20260509155359 | 47 | 21 | 7.0 | 15.0 | 0.00 | 0.07 | 0.07 | 87 | 1020.0 |
| 20260509154900 | 48 | 13 | 7.0 | 18.0 | 0.00 | 0.07 | 0.07 | 87 | 1019.8 |
| 20260509154401 | 48 | 12 | 8.0 | 16.0 | 0.00 | 0.07 | 0.07 | 88 | 1019.8 |
| 20260509153900 | 48 | 356 | 7.0 | 16.0 | 0.00 | 0.07 | 0.07 | 87 | 1019.9 |
| 20260509153400 | 48 | 14 | 7.0 | 16.0 | 0.00 | 0.07 | 0.07 | 87 | 1019.8 |
| 20260509152900 | 48 | 13 | 7.0 | 14.0 | 0.00 | 0.07 | 0.07 | 88 | 1019.8 |
| 20260509152401 | 48 | 18 | 4.0 | 10.0 | 0.00 | 0.07 | 0.07 | 87 | 1019.8 |
| 20260509151900 | 48 | 8 | 6.0 | 12.0 | 0.00 | 0.07 | 0.07 | 87 | 1019.8 |
| 20260509151400 | 49 | 6 | 6.0 | 12.0 | 0.00 | 0.07 | 0.07 | 87 | 1019.8 |
| 20260509150900 | 49 | 15 | 5.0 | 10.0 | 0.00 | 0.07 | 0.07 | 87 | 1019.9 |
| 20260509150400 | 49 | 358 | 6.0 | 13.0 | 0.00 | 0.07 | 0.07 | 87 | 1019.9 |
| 20260509145900 | 49 | 13 | 7.0 | 12.0 | 0.00 | 0.09 | 0.07 | 87 | 1019.9 |
| 20260509145400 | 49 | 14 | 6.0 | 12.0 | 0.00 | 0.12 | 0.07 | 87 | 1019.9 |
| 20260509143900 | 50 | 1 | 3.0 | 13.0 | 0.00 | 0.12 | 0.07 | 87 | 1019.9 |
| 20260509143400 | 50 | 5 | 5.0 | 13.0 | 0.00 | 0.12 | 0.07 | 87 | 1019.8 |
| 20260509142900 | 50 | 351 | 5.0 | 13.0 | 0.00 | 0.12 | 0.07 | 87 | 1019.7 |
| 20260509142401 | 50 | 8 | 6.0 | 10.0 | 0.00 | 0.12 | 0.07 | 86 | 1019.7 |
| 20260509141900 | 50 | 21 | 7.0 | 15.0 | 0.00 | 0.12 | 0.07 | 86 | 1019.7 |
| 20260509141400 | 51 | 6 | 5.0 | 9.0 | 0.00 | 0.12 | 0.07 | 87 | 1019.7 |
| 20260509140900 | 50 | 13 | 5.0 | 12.0 | 0.00 | 0.12 | 0.07 | 86 | 1019.7 |
| 20260509140400 | 51 | 16 | 6.0 | 12.0 | 0.00 | 0.12 | 0.07 | 86 | 1019.7 |
| 20260509135900 | 51 | 14 | 3.0 | 13.0 | 0.00 | 0.12 | 0.07 | 86 | 1019.8 |
| 20260509135400 | 51 | 353 | 5.0 | 10.0 | 0.00 | 0.12 | 0.07 | 85 | 1019.8 |
| 20260509134900 | 51 | 3 | 3.0 | 10.0 | 0.00 | 0.12 | 0.07 | 85 | 1019.7 |
| 20260509134359 | 51 | 349 | 4.0 | 10.0 | 0.00 | 0.12 | 0.07 | 85 | 1019.7 |
| 20260509133900 | 51 | 4 | 6.0 | 12.0 | 0.00 | 0.12 | 0.07 | 85 | 1019.7 |
| 20260509133400 | 51 | 9 | 3.0 | 12.0 | 0.00 | 0.12 | 0.07 | 85 | 1019.8 |
| 20260509132900 | 52 | 351 | 4.0 | 12.0 | 0.00 | 0.12 | 0.07 | 86 | 1019.8 |
| 20260509132401 | 52 | 356 | 5.0 | 9.0 | 0.00 | 0.12 | 0.07 | 86 | 1019.7 |
| 20260509131902 | 52 | 357 | 6.0 | 12.0 | 0.00 | 0.12 | 0.07 | 85 | 1019.7 |
| 20260509131401 | 52 | 17 | 7.0 | 12.0 | 0.00 | 0.12 | 0.07 | 86 | 1019.7 |
| 20260509130400 | 52 | 358 | 2.0 | 9.0 | 0.00 | 0.12 | 0.07 | 88 | 1019.7 |
| 20260509125900 | 51 | 347 | 2.0 | 7.0 | 0.00 | 0.12 | 0.07 | 88 | 1019.7 |
| 20260509125359 | 51 | 17 | 5.0 | 13.0 | 0.00 | 0.12 | 0.07 | 87 | 1019.8 |
| 20260509124900 | 51 | 17 | 3.0 | 10.0 | 0.00 | 0.12 | 0.07 | 89 | 1019.8 |
| 20260509122400 | 52 | 5 | 2.0 | 6.0 | 0.00 | 0.12 | 0.07 | 88 | 1019.8 |
| 20260509121900 | 52 | 9 | 4.0 | 8.0 | 0.00 | 0.12 | 0.07 | 88 | 1019.8 |
| 20260509121400 | 52 | 4 | 4.0 | 10.0 | 0.00 | 0.12 | 0.07 | 87 | 1019.8 |
| 20260509120859 | 52 | 12 | 2.0 | 6.0 | 0.00 | 0.12 | 0.07 | 87 | 1019.8 |
| 20260509120400 | 52 | 6 | 3.0 | 7.0 | 0.00 | 0.12 | 0.07 | 87 | 1019.8 |
| 20260509115900 | 53 | 24 | 2.0 | 6.0 | 0.00 | 0.12 | 0.07 | 87 | 1019.8 |
| 20260509114859 | 53 | 31 | 2.0 | 7.0 | 0.00 | 0.12 | 0.07 | 88 | 1019.7 |
| 20260509114400 | 53 | 358 | 5.0 | 8.0 | 0.00 | 0.13 | 0.07 | 88 | 1019.7 |
| 20260509113859 | 53 | 348 | 4.0 | 9.0 | 0.00 | 0.14 | 0.07 | 88 | 1019.7 |
| 20260509113400 | 53 | 0 | 5.0 | 8.0 | 0.00 | 0.15 | 0.07 | 89 | 1019.7 |
| 20260509112359 | 53 | 357 | 5.0 | 9.0 | 0.00 | 0.17 | 0.07 | 89 | 1019.7 |
| 20260509111359 | 52 | 45 | 2.0 | 10.0 | 0.00 | 0.21 | 0.07 | 90 | 1019.7 |
| 20260509110900 | 52 | 14 | 3.0 | 9.0 | 0.00 | 0.21 | 0.07 | 90 | 1019.7 |
| 20260509110400 | 52 | 27 | 3.0 | 7.0 | 0.01 | 0.21 | 0.07 | 90 | 1019.7 |
| 20260509105900 | 52 | 2 | 3.0 | 7.0 | 0.01 | 0.21 | 0.07 | 91 | 1019.7 |
| 20260509104900 | 52 | 8 | 2.0 | 5.0 | 0.02 | 0.21 | 0.07 | 91 | 1019.7 |
| 20260509104400 | 52 | 19 | 2.0 | 5.0 | 0.05 | 0.21 | 0.07 | 91 | 1019.8 |
| 20260509103900 | 52 | 64 | 2.0 | 6.0 | 0.06 | 0.21 | 0.07 | 91 | 1019.9 |
| 20260509103401 | 51 | 15 | 1.0 | 3.0 | 0.06 | 0.21 | 0.07 | 91 | 1019.9 |
| 20260509102900 | 51 | 48 | 1.0 | 3.0 | 0.06 | 0.21 | 0.07 | 91 | 1019.9 |
| 20260509102400 | 51 | 12 | 1.0 | 3.0 | 0.06 | 0.21 | 0.07 | 90 | 1020.0 |
| 20260509101900 | 51 | 348 | 1.0 | 3.0 | 0.06 | 0.21 | 0.07 | 90 | 1020.0 |
| 20260509095900 | 52 | 20 | 2.0 | 5.0 | 0.05 | 0.20 | 0.06 | 88 | 1019.9 |
| 20260509095400 | 52 | 23 | 2.0 | 3.0 | 0.04 | 0.20 | 0.06 | 88 | 1019.8 |
| 20260509094859 | 52 | 9 | 2.0 | 3.0 | 0.03 | 0.19 | 0.05 | 87 | 1019.8 |
| 20260509094359 | 52 | 9 | 2.0 | 3.0 | 0.01 | 0.17 | 0.02 | 85 | 1019.8 |
| 20260509093900 | 53 | 18 | 2.0 | 7.0 | 0.00 | 0.16 | 0.02 | 84 | 1019.7 |
| 20260509093359 | 53 | 13 | 2.0 | 5.0 | 0.00 | 0.16 | 0.02 | 84 | 1019.6 |
| 20260509092900 | 53 | 21 | 2.0 | 6.0 | 0.00 | 0.16 | 0.02 | 84 | 1019.5 |
| 20260509092400 | 53 | 34 | 2.0 | 7.0 | 0.00 | 0.16 | 0.02 | 84 | 1019.6 |
| 20260509091900 | 53 | 41 | 2.0 | 6.0 | 0.00 | 0.16 | 0.02 | 84 | 1019.5 |
| 20260509091400 | 53 | 4 | 4.0 | 7.0 | 0.00 | 0.16 | 0.02 | 85 | 1019.4 |
| 20260509090859 | 53 | 35 | 2.0 | 5.0 | 0.00 | 0.16 | 0.02 | 85 | 1019.5 |
| 20260509090400 | 53 | 37 | 2.0 | 6.0 | 0.00 | 0.16 | 0.02 | 85 | 1019.5 |
| 20260509085900 | 53 | 20 | 2.0 | 6.0 | 0.00 | 0.16 | 0.02 | 86 | 1019.5 |
| 20260509085401 | 53 | 23 | 2.0 | 7.0 | 0.00 | 0.16 | 0.02 | 86 | 1019.6 |
| 20260509084859 | 53 | 33 | 3.0 | 9.0 | 0.00 | 0.16 | 0.02 | 86 | 1019.5 |
| 20260509083900 | 53 | 4 | 2.0 | 5.0 | 0.00 | 0.16 | 0.02 | 87 | 1019.5 |
| 20260509083400 | 52 | 71 | 2.0 | 7.0 | 0.00 | 0.16 | 0.02 | 86 | 1019.5 |
| 20260509082900 | 52 | 344 | 2.0 | 7.0 | 0.00 | 0.16 | 0.02 | 87 | 1019.5 |
| 20260509082359 | 52 | 17 | 5.0 | 8.0 | 0.00 | 0.16 | 0.02 | 88 | 1019.5 |
| 20260509081901 | 52 | 37 | 2.0 | 3.0 | 0.00 | 0.16 | 0.02 | 89 | 1019.5 |
| 20260509081400 | 52 | 305 | 1.0 | 3.0 | 0.00 | 0.16 | 0.02 | 90 | 1019.4 |
| 20260509080859 | 51 | 202 | 3.0 | 3.0 | 0.00 | 0.16 | 0.02 | 90 | 1019.4 |
| 20260509080359 | 51 | 126 | 2.0 | 5.0 | 0.00 | 0.16 | 0.02 | 91 | 1019.5 |
| 20260509075359 | 50 | 202 | 1.0 | 2.0 | 0.00 | 0.16 | 0.02 | 93 | 1019.3 |
| 20260509074900 | 50 | 202 | 1.0 | 2.0 | 0.00 | 0.16 | 0.02 | 93 | 1019.4 |
| 20260509074359 | 50 | 202 | 1.0 | 3.0 | 0.00 | 0.16 | 0.02 | 93 | 1019.4 |
| 20260509073859 | 50 | 202 | 1.0 | 2.0 | 0.00 | 0.16 | 0.02 | 93 | 1019.4 |
| 20260509073359 | 49 | 202 | 1.0 | 2.0 | 0.00 | 0.16 | 0.02 | 93 | 1019.4 |
| 20260509072859 | 49 | 202 | 1.0 | 2.0 | 0.01 | 0.16 | 0.02 | 93 | 1019.3 |
| 20260509071859 | 49 | 263 | 0.0 | 2.0 | 0.01 | 0.16 | 0.02 | 93 | 1019.2 |